EW6547 Weather Reports


time (UTC)temp
C
wind
direction
speed
KPH
gust
KPH
rain 1hr
cm
rain 24hr
cm
rain mn
cm
humidity
%
barometer
mb
20260507074539 8 179 3.2 6.4 0.00 0.00 0.00 57 1015.3
20260507073037 8 179 4.8 9.7 0.00 0.00 0.00 56 1015.4
20260507071537 8 179 3.2 8.0 0.00 0.00 0.00 56 1015.5
20260507064542 8 179 1.6 6.4 0.00 0.00 0.00 55 1015.7
20260507063038 8 179 1.6 6.4 0.00 0.00 0.00 54 1015.8
20260507061536 8 179 3.2 8.0 0.00 0.00 0.00 52 1015.5
20260507060006 8 179 3.2 4.8 0.00 0.00 0.00 53 1015.5
20260507054505 8 179 3.2 4.8 0.00 0.00 0.00 56 1015.3
20260507053005 8 179 3.2 8.0 0.00 0.00 0.00 57 1015.5
20260507051552 8 179 3.2 8.0 0.00 0.00 0.00 58 1015.7
20260507050055 9 179 1.6 6.4 0.00 0.00 0.00 58 1015.8
20260507044548 9 179 1.6 6.4 0.00 0.00 0.00 57 1015.6
20260507043048 9 179 1.6 6.4 0.00 0.00 0.00 57 1015.4
20260507041547 9 179 3.2 8.0 0.00 0.00 0.00 59 1015.4
20260507040042 9 179 3.2 8.0 0.00 0.00 0.00 61 1015.1
20260507034551 9 179 3.2 8.0 0.00 0.00 0.00 63 1015.0
20260507033056 9 179 3.2 6.4 0.00 0.00 0.00 67 1015.1
20260507031522 10 179 1.6 4.8 0.00 0.00 0.00 75 1014.9
20260507030022 10 179 0.0 3.2 0.00 0.00 0.00 74 1014.9
20260507024516 11 179 1.6 3.2 0.00 0.00 0.00 72 1014.8
20260507023013 11 179 0.0 1.6 0.00 0.00 0.00 70 1014.7
20260507021510 11 179 0.0 0.0 0.00 0.00 0.00 69 1014.6
20260507020007 12 179 0.0 3.2 0.00 0.00 0.00 66 1014.6
20260507014503 13 179 0.0 0.0 0.00 0.00 0.00 63 1014.6
20260507013116 13 179 0.0 3.2 0.00 0.00 0.00 61 1014.5
20260507011545 14 179 0.0 4.8 0.00 0.00 0.00 58 1014.6
20260507010043 14 179 0.0 9.7 0.00 0.00 0.00 57 1014.5
20260507004541 14 179 1.6 8.0 0.00 0.00 0.00 57 1014.4
20260507003039 15 179 0.0 8.0 0.00 0.00 0.00 55 1014.4
20260507001558 15 179 1.6 11.3 0.00 0.00 0.00 55 1014.4
20260507000032 15 179 1.6 9.7 0.00 0.00 0.00 55 1014.4
20260506234544 16 179 1.6 11.3 0.00 0.00 0.00 52 1014.3
20260506233028 16 179 1.6 6.4 0.00 0.00 0.00 52 1014.4
20260506231510 16 179 3.2 12.9 0.00 0.00 0.00 52 1014.5
20260506230010 16 179 3.2 9.7 0.00 0.00 0.00 51 1014.6
20260506224611 16 179 3.2 14.5 0.00 0.00 0.00 52 1014.5
20260506223058 16 179 4.8 11.3 0.00 0.00 0.00 51 1014.7
20260506221552 16 179 6.4 14.5 0.00 0.00 0.00 50 1014.9
20260506214545 16 179 1.6 9.7 0.00 0.00 0.00 51 1015.2
20260506213042 15 179 6.4 12.9 0.00 0.00 0.00 50 1015.5
20260506211550 15 179 3.2 11.3 0.00 0.00 0.00 51 1015.6
20260506210039 15 179 4.8 11.3 0.00 0.00 0.00 50 1015.7
20260506204528 15 179 1.6 6.4 0.00 0.00 0.00 53 1015.8
20260506203028 15 179 1.6 8.0 0.00 0.00 0.00 52 1016.0
20260506201525 15 179 3.2 8.0 0.00 0.00 0.00 51 1016.1
20260506200021 13 179 1.6 6.4 0.00 0.00 0.00 59 1016.2
20260506194531 13 179 1.6 8.0 0.00 0.00 0.00 61 1016.4
20260506193019 13 179 1.6 6.4 0.00 0.00 0.00 58 1016.3
20260506191518 13 179 1.6 11.3 0.00 0.00 0.00 57 1016.3
20260506190018 13 179 3.2 8.0 0.00 0.00 0.00 56 1016.5
20260506184503 13 179 0.0 6.4 0.00 0.00 0.00 57 1016.5
20260506183003 12 179 1.6 4.8 0.00 0.00 0.00 57 1016.7
20260506181502 12 179 0.0 4.8 0.00 0.00 0.00 56 1016.8
20260506180001 12 179 1.6 6.4 0.00 0.00 0.00 54 1016.7
20260506174601 13 179 3.2 8.0 0.00 0.00 0.00 51 1016.4
20260506173127 12 179 1.6 9.7 0.00 0.00 0.00 53 1016.6
20260506171602 12 179 1.6 4.8 0.00 0.00 0.00 52 1016.5
20260506170104 12 179 1.6 6.4 0.00 0.00 0.00 48 1016.3
20260506164542 12 179 1.6 4.8 0.00 0.00 0.00 48 1016.3
20260506163042 12 179 3.2 11.3 0.00 0.00 0.00 47 1016.2
20260506161538 12 179 0.0 3.2 0.00 0.00 0.00 53 1016.0
20260506160039 11 179 0.0 3.2 0.00 0.00 0.00 51 1016.2
20260506154531 11 179 0.0 3.2 0.00 0.00 0.00 58 1016.3
20260506153028 10 179 0.0 1.6 0.00 0.00 0.00 65 1016.1
20260506151523 9 179 1.6 3.2 0.00 0.00 0.00 70 1016.2
20260506150019 7 179 1.6 8.0 0.00 0.00 0.00 73 1016.2
20260506144507 5 179 1.6 4.8 0.00 0.00 0.00 80 1016.3
20260506143008 4 178 3.2 4.8 0.00 0.00 0.00 82 1016.3
20260506141505 3 179 3.2 4.8 0.00 0.00 0.00 81 1016.2
20260506140005 3 179 3.2 6.4 0.00 0.00 0.00 82 1016.1
20260506134503 3 179 1.6 6.4 0.00 0.00 0.00 81 1015.9
20260506133001 3 179 3.2 4.8 0.00 0.00 0.00 83 1015.6
20260506131605 3 179 3.2 6.4 0.00 0.00 0.00 82 1015.4
20260506124542 2 179 1.6 6.4 0.00 0.00 0.00 83 1015.2
20260506123040 2 179 3.2 6.4 0.00 0.00 0.00 83 1015.1
20260506121529 2 179 3.2 8.0 0.00 0.00 0.00 84 1015.1
20260506120029 2 179 1.6 6.4 0.00 0.00 0.00 84 1015.0
20260506114528 1 179 3.2 6.4 0.00 0.00 0.00 85 1015.1
20260506113027 1 179 1.6 6.4 0.00 0.00 0.00 84 1015.1
20260506111524 1 179 1.6 4.8 0.00 0.00 0.00 84 1015.0
20260506110025 1 179 1.6 8.0 0.00 0.00 0.00 84 1015.0
20260506104523 1 179 0.0 4.8 0.00 0.00 0.00 84 1015.0
20260506103034 1 179 0.0 3.2 0.00 0.00 0.00 85 1014.9
20260506101509 1 179 0.0 3.2 0.00 0.00 0.00 86 1014.9
20260506100011 1 179 0.0 1.6 0.00 0.00 0.00 87 1014.8
20260506094507 1 179 0.0 6.4 0.00 0.00 0.00 88 1014.8
20260506093008 1 179 1.6 4.8 0.00 0.00 0.00 88 1014.7
20260506091505 1 179 0.0 3.2 0.00 0.00 0.00 88 1014.6
20260506090004 1 179 0.0 0.0 0.00 0.00 0.00 89 1014.8
20260506084503 1 179 0.0 0.0 0.00 0.00 0.00 89 1014.8
20260506083003 1 179 0.0 4.8 0.00 0.00 0.00 89 1014.7
20260506081600 1 179 1.6 4.8 0.00 0.00 0.00 89 1014.7